[[{"header":{"parameterUnit":"m.s-1","parameterCategory":1,"la1":30.2991,"la2":30.254,"lo1":-89.0895,"lo2":-89.0444,"dy":0.0017,"dx":0.0017,"nx":28,"ny":28,"refTime":"2023-04-17T21:00:00:Z","depth":0,"parameterNumber":2,"parameterNumberName":"U-component_of_WINDS"},"data":[0,0,0,0,0,0,0,0,0,0,0,0,0,0,0,0,0,0,0,0,0,0,0,0,0,0,0,0,0,0,0,0,0,0,0,0,0,0,0,0,0,0,0,0,0,0,0,0,0,0,0,0,0,0,0,0,0,0,1.9316,1.9317,0,1.9433,1.9434,1.9435,1.9412,1.9409,1.9407,1.9405,1.9531,1.9536,1.9541,0,0,0,0,0,0,0,0,0,0,0,0,0,1.9081,1.9085,1.9316,1.9317,1.9319,1.9432,1.9434,1.9436,1.9412,1.9409,1.9407,1.9404,1.9529,1.9536,1.9542,0,0,0,0,0,0,0,0,0,0,0,0,0,1.9189,1.9087,1.9316,1.9321,1.9322,1.9432,1.9434,1.9436,1.9412,1.9409,1.9406,1.9403,1.9527,1.9535,1.9543,1.9657,0,0,1.9567,1.9571,0,0,0,0,0,0,0,0,1.9183,1.9198,1.9318,1.932,1.9322,1.9404,1.9397,1.951,1.9413,1.9378,1.9405,1.9401,1.9492,1.9502,1.9532,1.9663,1.9668,1.9568,1.9573,1.9576,1.9579,0,0,0,0,0,0,0,1.9175,1.9192,1.9362,1.932,1.9323,1.932,1.9331,1.9418,1.9452,1.9381,1.938,1.9393,1.9492,1.9524,1.9534,1.967,1.9568,1.9575,1.958,1.9583,1.9905,1.9908,0,0,0,0,0,0,1.9165,1.9186,1.9359,1.9366,1.9243,1.9326,1.934,1.9381,1.9451,1.9458,1.9396,1.9392,1.9512,1.9525,1.9539,1.968,1.9576,1.9584,1.9588,1.9901,1.9906,1.991,0,0,0,0,0,0,1.916,1.9181,1.9354,1.9276,1.9297,1.9334,1.9381,1.9385,1.9417,1.9462,1.9469,1.9422,1.951,1.9527,1.9628,1.9683,1.9587,1.9595,1.9897,1.9903,1.9908,1.996,0,0,0,0,0,0,1.9153,1.9179,1.9221,1.9277,1.9302,1.9439,1.9384,1.939,1.943,1.9426,1.9488,1.9495,1.9509,1.9616,1.9636,1.9693,1.9601,1.9892,1.9899,1.9906,1.9954,1.9967,1.9978,0,0,0,0,0,1.9145,1.9232,1.9223,1.9244,1.9354,1.9442,1.9457,1.9468,1.9434,1.9478,1.9508,1.9493,1.9674,1.9627,1.9649,1.9709,1.9889,1.9897,1.9905,1.9948,1.9964,1.9978,0,0,0,0,0,0,1.9183,1.9239,1.923,1.9336,1.9385,1.9438,1.9493,1.9485,1.9545,1.9539,1.9553,1.9567,1.967,1.9699,1.9646,1.9825,1.9777,1.979,1.9802,1.9818,1.983,1.9821,1.9608,0,0,0,0,0,1.9203,1.9267,1.9314,1.9404,1.9428,1.9457,1.9495,1.95,1.9552,1.9572,1.9609,1.9661,1.973,1.9775,1.9841,1.9958,1.9973,2.001,2.0022,2.0032,2.0044,2.0112,2.013,1.9937,1.9937,1.9937,0,0,1.9246,1.9285,1.9325,1.9412,1.945,1.9519,1.9474,1.9548,1.9601,1.9584,1.9682,1.9711,1.977,1.988,1.9931,1.9908,2.01,2.0043,2.005,2.0057,2.0122,2.014,2.0156,1.9943,1.9942,1.9941,0,0,1.9361,1.9395,1.9475,1.9514,1.9571,1.959,1.961,1.9665,1.9683,1.9781,1.9771,1.9834,1.9952,1.9995,2.0033,2.0167,2.0157,2.0188,2.0253,2.0318,2.0333,2.0347,2.0397,2.0415,2.0199,2.0199,2.02,0,1.9409,1.951,1.9518,1.9594,1.9634,1.9621,1.9704,1.9742,1.9819,1.9848,1.9821,1.997,2.0009,2.013,2.0163,2.0193,2.0218,2.0181,2.033,2.0344,2.0356,2.0405,2.0424,2.0203,2.0203,2.0202,2.0202,0,1.9567,1.9637,1.9695,1.9768,1.9815,1.9894,1.9917,1.9964,1.9966,1.9988,2.009,2.0136,2.0212,2.0241,2.0244,2.0365,2.0349,2.0326,2.0278,2.0378,2.0424,2.0442,2.0208,2.0207,2.0206,2.0205,0,0,1.9708,1.9785,1.9807,1.9841,1.9904,1.9961,2.0041,2.0113,2.0155,2.0209,2.0278,2.0379,2.0358,2.0401,2.0409,2.0466,2.0573,2.0436,2.0438,2.0462,2.0713,2.0731,2.0752,2.0566,2.057,2.0572,2.0709,0,1.983,1.9969,1.998,2.0106,2.0174,2.0163,2.0233,2.0282,2.0305,2.0368,2.0396,2.0468,2.0433,2.046,2.0516,2.0548,2.0624,2.0538,2.0634,2.0638,2.0621,2.0776,2.0795,2.0921,2.0726,2.0729,2.0731,0,1.9991,2.0049,2.0181,2.0238,2.0266,2.0329,2.0398,2.0457,2.0513,2.0527,2.0575,2.0576,2.0662,2.061,2.073,2.0672,2.0712,2.0734,2.0739,2.075,2.0692,2.0793,2.0961,2.0981,2.0759,2.0757,2.0755,0,2.0084,2.0195,2.029,2.0319,2.0386,2.0431,2.0461,2.0514,2.0558,2.0619,2.0648,2.0719,2.0759,2.0815,2.0836,2.0796,2.0957,2.0906,2.0974,2.0974,2.1009,2.1007,2.1189,2.1032,2.1032,2.1031,2.1031,0,2.0221,2.0303,2.0332,2.0391,2.0484,2.0497,2.059,2.0618,2.0665,2.0731,2.0727,2.079,2.0812,2.088,2.0897,2.0996,2.1013,2.1029,2.1033,2.1031,2.1029,2.1059,2.1052,2.1036,2.1035,2.1034,2.1033,0,2.0341,2.0363,2.0466,2.0521,2.0537,2.0604,2.0652,2.071,2.0733,2.0817,2.0838,2.0875,2.0955,2.0981,2.1077,2.1089,2.1205,2.12,2.1186,2.1187,2.1254,2.1249,2.1463,2.1493,2.1314,2.1316,2.1317,0,2.0427,2.049,2.0552,2.0595,2.0627,2.0696,2.0741,2.0757,2.0805,2.0874,2.0925,2.1003,2.1067,2.1195,2.1233,2.1307,2.1306,2.1376,2.1317,2.1314,2.131,2.1307,2.1315,2.1387,2.1389,2.1391,2.1392,0,2.0579,2.0588,2.0651,2.072,2.0773,2.0828,2.0881,2.0917,2.0942,2.0996,2.1076,2.1126,2.1224,2.1303,2.138,2.1414,2.1409,2.141,2.143,2.1429,2.1419,2.1428,2.1218,2.1405,2.1404,2.1403,2.1402,2.1402,2.0687,2.0744,2.0796,2.0868,2.091,2.096,2.1018,2.1048,2.1115,2.1195,2.1201,2.1289,2.1347,2.1448,2.1487,2.1558,2.1538,2.1567,2.1574,2.1582,2.1588,2.1406,2.1572,2.1571,2.1571,2.1571,2.157,0,2.0841,2.0875,2.094,2.1015,2.1072,2.1059,2.1118,2.1168,2.1245,2.1298,2.136,2.1455,2.1532,2.1576,2.1654,2.1703,2.1702,2.1723,2.1721,2.1729,2.16,2.1576,2.1722,2.1722,2.1722,2.1722,2.1722,2.1722,2.0928,2.1024,2.1039,2.1157,2.1191,2.1275,2.131,2.1358,2.1401,2.1505,2.1569,2.1596,2.1647,2.1729,2.1801,2.1812,2.1842,2.1865,2.1875,2.1754,2.1738,2.1723,2.1701,2.1871,2.1871,2.1999,2.2,2.2001]},{"header":{"parameterUnit":"m.s-1","parameterCategory":1,"la1":30.2991,"la2":30.254,"lo1":-89.0895,"lo2":-89.0444,"dy":0.0017,"dx":0.0017,"nx":28,"ny":28,"refTime":"2023-04-17T21:00:00:Z","depth":0,"parameterNumber":3,"parameterNumberName":"V-component_of_WINDS"},"data":[0,0,0,0,0,0,0,0,0,0,0,0,0,0,0,0,0,0,0,0,0,0,0,0,0,0,0,0,0,0,0,0,0,0,0,0,0,0,0,0,0,0,0,0,0,0,0,0,0,0,0,0,0,0,0,0,0,0,-0.6008,-0.6007,0,-0.5947,-0.5946,-0.5946,-0.5978,-0.5979,-0.5981,-0.5982,-0.592,-0.5917,-0.5914,0,0,0,0,0,0,0,0,0,0,0,0,0,-0.6152,-0.6149,-0.6008,-0.6007,-0.6007,-0.5947,-0.5946,-0.5945,-0.5977,-0.5979,-0.5981,-0.5983,-0.5921,-0.5917,-0.5913,0,0,0,0,0,0,0,0,0,0,0,0,0,-0.609,-0.6148,-0.6008,-0.6015,-0.6015,-0.5947,-0.5946,-0.5945,-0.5977,-0.5979,-0.5982,-0.5984,-0.5922,-0.5918,-0.5913,-0.5834,0,0,-0.5898,-0.5896,0,0,0,0,0,0,0,0,-0.6093,-0.6085,-0.6015,-0.6015,-0.6015,-0.5972,-0.5974,-0.5908,-0.5976,-0.5991,-0.5982,-0.5985,-0.5935,-0.593,-0.5913,-0.5831,-0.5829,-0.5898,-0.5895,-0.5893,-0.5892,0,0,0,0,0,0,0,-0.6098,-0.6088,-0.5984,-0.6014,-0.6014,-0.6021,-0.6015,-0.5962,-0.595,-0.599,-0.5993,-0.5985,-0.5936,-0.5917,-0.5912,-0.5828,-0.5898,-0.5894,-0.5891,-0.5889,-0.5677,-0.5674,0,0,0,0,0,0,-0.6102,-0.6091,-0.5986,-0.5982,-0.6061,-0.6017,-0.601,-0.5983,-0.5951,-0.5949,-0.5983,-0.5987,-0.5924,-0.5917,-0.591,-0.5814,-0.5893,-0.5888,-0.5886,-0.568,-0.5676,-0.5673,0,0,0,0,0,0,-0.6105,-0.6092,-0.5988,-0.6037,-0.6024,-0.6012,-0.5982,-0.5981,-0.5963,-0.5945,-0.5944,-0.5966,-0.5926,-0.5916,-0.5852,-0.5812,-0.5886,-0.5882,-0.5683,-0.5679,-0.5675,-0.5622,0,0,0,0,0,0,-0.6109,-0.6093,-0.6063,-0.6036,-0.6022,-0.5932,-0.5979,-0.5978,-0.5954,-0.5959,-0.5929,-0.5927,-0.5927,-0.5859,-0.5848,-0.5807,-0.5878,-0.5686,-0.5681,-0.5676,-0.5628,-0.5617,-0.5608,0,0,0,0,0,-0.6114,-0.6051,-0.6061,-0.6048,-0.5984,-0.593,-0.5921,-0.5923,-0.5951,-0.592,-0.5909,-0.5928,-0.5819,-0.5852,-0.584,-0.5797,-0.5689,-0.5683,-0.5677,-0.5632,-0.5619,-0.5608,0,0,0,0,0,0,-0.6074,-0.6048,-0.6059,-0.5986,-0.596,-0.5935,-0.5897,-0.591,-0.5875,-0.5881,-0.5885,-0.5878,-0.5811,-0.5798,-0.5836,-0.5718,-0.5758,-0.5749,-0.5729,-0.5716,-0.5706,-0.571,-0.5874,0,0,0,0,0,-0.6057,-0.6015,-0.5994,-0.5932,-0.5918,-0.591,-0.5886,-0.589,-0.5863,-0.5852,-0.5836,-0.5809,-0.5769,-0.5742,-0.5704,-0.5627,-0.562,-0.5591,-0.5581,-0.5573,-0.5564,-0.552,-0.5507,-0.5653,-0.5653,-0.5653,0,0,-0.6021,-0.6001,-0.5975,-0.5923,-0.5903,-0.5859,-0.59,-0.5852,-0.5819,-0.5845,-0.5782,-0.577,-0.5741,-0.5669,-0.5636,-0.5656,-0.5523,-0.5565,-0.5559,-0.5554,-0.5513,-0.5499,-0.5486,-0.5649,-0.5649,-0.565,0,0,-0.5932,-0.5914,-0.5858,-0.5838,-0.5807,-0.5801,-0.5788,-0.5761,-0.5754,-0.5692,-0.5709,-0.5671,-0.5602,-0.5579,-0.5559,-0.546,-0.5475,-0.5448,-0.5396,-0.5353,-0.5341,-0.5331,-0.5294,-0.5281,-0.544,-0.544,-0.544,0,-0.5891,-0.5825,-0.5829,-0.5778,-0.5755,-0.5776,-0.5719,-0.5699,-0.5658,-0.564,-0.5663,-0.5576,-0.5557,-0.548,-0.5456,-0.5439,-0.5423,-0.545,-0.5343,-0.5332,-0.5323,-0.5288,-0.5274,-0.5437,-0.5437,-0.5437,-0.5438,0,-0.5775,-0.5729,-0.5688,-0.5646,-0.5619,-0.5566,-0.5561,-0.5532,-0.5538,-0.553,-0.5466,-0.5445,-0.5402,-0.5385,-0.539,-0.5307,-0.532,-0.5343,-0.5382,-0.5305,-0.5272,-0.5259,-0.5432,-0.5433,-0.5434,-0.5435,0,0,-0.5659,-0.5619,-0.5604,-0.5585,-0.5552,-0.5516,-0.5464,-0.5422,-0.5396,-0.5367,-0.5323,-0.5263,-0.5284,-0.526,-0.5264,-0.5227,-0.5148,-0.5254,-0.5253,-0.5233,-0.5053,-0.5034,-0.5019,-0.5158,-0.5156,-0.5154,-0.5054,0,-0.5566,-0.5474,-0.5475,-0.539,-0.5347,-0.5366,-0.532,-0.5295,-0.5286,-0.5248,-0.5239,-0.5196,-0.5227,-0.5212,-0.5177,-0.5165,-0.5111,-0.5172,-0.5116,-0.5114,-0.512,-0.5002,-0.4982,-0.4889,-0.5042,-0.504,-0.5038,0,-0.5445,-0.5411,-0.5321,-0.5293,-0.5275,-0.5234,-0.5194,-0.5158,-0.513,-0.5126,-0.5099,-0.5108,-0.5055,-0.5098,-0.5023,-0.5065,-0.5042,-0.5033,-0.5029,-0.5022,-0.507,-0.499,-0.486,-0.4845,-0.5018,-0.502,-0.5021,0,-0.5367,-0.5298,-0.5235,-0.5218,-0.5185,-0.5155,-0.514,-0.5114,-0.5088,-0.5054,-0.5037,-0.4997,-0.4975,-0.4944,-0.4942,-0.4974,-0.4866,-0.4909,-0.4861,-0.486,-0.4836,-0.4837,-0.4698,-0.4824,-0.4824,-0.4825,-0.4825,0,-0.5262,-0.5206,-0.5199,-0.516,-0.5097,-0.5099,-0.5037,-0.5024,-0.5001,-0.4959,-0.4974,-0.4935,-0.4936,-0.4896,-0.4894,-0.4832,-0.4822,-0.4817,-0.4817,-0.4814,-0.4814,-0.4798,-0.4803,-0.4821,-0.4822,-0.4823,-0.4823,0,-0.5163,-0.5157,-0.5088,-0.5062,-0.5054,-0.5008,-0.4986,-0.4948,-0.4941,-0.4888,-0.4876,-0.4864,-0.4818,-0.4813,-0.476,-0.4758,-0.4682,-0.469,-0.4691,-0.4692,-0.4642,-0.4646,-0.4487,-0.4465,-0.4607,-0.4606,-0.4605,0,-0.5095,-0.5052,-0.5021,-0.4994,-0.4976,-0.4933,-0.4906,-0.4907,-0.4878,-0.4842,-0.4808,-0.4763,-0.4727,-0.4652,-0.4639,-0.4597,-0.4603,-0.455,-0.4597,-0.4595,-0.46,-0.4601,-0.4596,-0.454,-0.4539,-0.4538,-0.4537,0,-0.4975,-0.4974,-0.4935,-0.4893,-0.4861,-0.4829,-0.4799,-0.4776,-0.4773,-0.474,-0.4692,-0.4664,-0.4609,-0.4563,-0.4523,-0.4507,-0.452,-0.4522,-0.4508,-0.4504,-0.4506,-0.4502,-0.4664,-0.4525,-0.4526,-0.4527,-0.4528,-0.4528,-0.4889,-0.485,-0.4822,-0.4777,-0.4754,-0.4725,-0.4688,-0.4676,-0.4636,-0.459,-0.4594,-0.454,-0.4512,-0.4459,-0.444,-0.4398,-0.4416,-0.4396,-0.4391,-0.4386,-0.4379,-0.4514,-0.4391,-0.4392,-0.4392,-0.4392,-0.4392,0,-0.4767,-0.475,-0.4709,-0.4665,-0.463,-0.4646,-0.4614,-0.4583,-0.4535,-0.4508,-0.4472,-0.4416,-0.4372,-0.4355,-0.4312,-0.4281,-0.4286,-0.427,-0.4271,-0.4267,-0.4367,-0.4382,-0.4266,-0.4266,-0.4266,-0.4266,-0.4266,-0.4266,-0.47,-0.4635,-0.463,-0.4554,-0.4538,-0.4485,-0.4464,-0.4438,-0.4416,-0.4352,-0.4315,-0.4305,-0.4281,-0.4236,-0.4196,-0.4192,-0.4175,-0.4155,-0.4154,-0.4247,-0.426,-0.4272,-0.4286,-0.4152,-0.4152,-0.4056,-0.4055,-0.4055]}]]